Date,TemperatureHighF,TemperatureAvgF,TemperatureLowF,DewpointHighF,DewpointAvgF,DewpointLowF,HumidityHigh,HumidityAvg,HumidityLow,PressureMaxIn,PressureMinIn,WindSpeedMaxMPH,WindSpeedAvgMPH,GustSpeedMaxMPH,PrecipitationSumIn
2013-4-1,69.1,55.9,46.5,52.7,48.4,43.8,93,77,51,30.18,30.03,7,1,13,0.00
2013-4-2,61.9,55.5,47.2,51.0,48.6,43.8,89,78,64,30.22,30.16,5,2,10,0.00
2013-4-3,68.0,59.7,48.9,54.0,50.7,44.9,87,73,57,30.15,29.91,3,0,7,0.00
2013-4-4,59.0,53.7,51.3,55.5,50.7,47.1,94,90,77,29.92,29.67,6,1,16,0.42
2013-4-5,56.9,53.1,50.2,54.0,50.6,47.9,95,91,84,29.92,29.78,4,1,10,0.58
2013-4-6,59.6,51.0,43.4,49.7,45.1,41.2,94,81,59,29.97,29.71,10,3,18,0.58
2013-4-7,53.7,46.2,40.6,47.5,42.9,38.6,95,88,72,29.96,29.49,11,3,19,0.38
2013-4-8,55.8,49.3,40.9,46.9,42.6,38.5,92,78,62,30.31,30.13,8,2,15,0.00
2013-4-9,55.7,46.9,35.9,45.9,41.4,34.3,95,82,66,30.37,30.25,4,1,13,0.00
2013-4-10,59.6,52.7,47.5,51.3,45.8,41.4,93,78,61,30.33,30.07,10,4,17,0.27
2013-4-11,59.0,52.3,40.5,49.6,42.2,35.7,85,69,51,30.34,30.22,9,3,17,0.06
2013-4-12,52.7,47.1,39.4,45.0,42.8,37.5,93,86,69,30.07,29.82,7,1,12,0.23
2013-4-13,50.4,45.1,40.4,45.4,40.9,38.3,94,85,71,30.08,30.02,10,3,17,0.78
2013-4-14,56.5,43.5,37.3,44.2,39.5,35.4,95,86,58,30.08,29.96,7,1,15,0.29
2013-4-15,58.2,50.6,37.2,46.3,40.9,35.3,96,71,49,30.22,29.98,11,3,19,0.05
2013-4-16,60.1,54.2,40.5,47.7,40.1,32.7,90,61,37,30.40,30.19,8,3,16,0.01
2013-4-17,63.1,53.7,41.9,45.6,41.6,38.0,86,65,43,30.50,30.43,6,2,13,0.00
2013-4-18,58.9,52.6,47.5,48.5,46.2,42.3,93,79,61,30.49,30.30,4,1,9,0.03
2013-4-19,57.7,52.9,49.3,52.1,48.0,45.7,94,83,74,30.30,30.15,7,3,15,0.53
2013-4-20,59.6,53.1,45.8,48.0,45.0,41.6,89,74,63,30.35,30.30,9,3,15,0.08
2013-4-21,59.6,49.7,41.6,48.5,43.8,38.1,93,81,60,30.35,30.26,6,1,15,0.00
2013-4-22,65.0,51.3,37.5,43.6,37.6,30.2,93,64,35,30.48,30.35,9,3,15,0.00
2013-4-23,68.3,61.2,45.8,42.5,36.5,29.9,82,42,27,30.33,30.18,9,4,22,0.00
2013-4-24,73.5,63.1,41.8,45.7,38.5,32.1,86,44,24,30.29,30.04,9,3,16,0.00
2013-4-25,75.8,63.2,48.5,52.8,47.7,40.0,88,60,34,30.19,30.05,8,3,17,0.00
2013-4-26,78.4,65.2,48.5,53.0,44.7,38.1,88,50,28,30.27,30.18,5,2,12,0.00
2013-4-27,60.8,56.2,47.4,48.7,46.9,41.4,86,71,63,30.28,30.25,3,1,9,0.00
2013-4-28,57.7,52.9,50.0,47.3,45.8,43.9,90,77,62,30.14,30.07,3,1,9,0.08
2013-4-29,58.1,50.3,38.6,45.4,38.4,34.3,88,65,47,30.25,30.17,11,4,23,0.16
2013-4-30,58.6,51.8,39.2,42.8,36.8,33.2,80,58,41,30.48,30.31,9,4,18,0.00